Location: Newark
(54.6833°N, 25.2833°E)
Time: 12:55:02
(UTC+00:00)

Tiros 1 despin weight - Pass Details

Date: 24 November 2019
Orbit: 594 x 642 km, 48.2° (Epoch: 10 December)

Event Time Altitude Azimuth Distance (km) Brightness Sun altitude
Rises 12:17:47 0° 254° (WSW) 2,828 ? 9.6°
Reaches altitude 10° 12:20:11 10° 246° (WSW) 1,928 ? 9.4°
Maximum altitude 12:24:13 36° 180° (S) 954 ? 9.1°
Drops below altitude 10° 12:28:18 10° 114° (ESE) 1,941 ? 8.8°
Sets 12:30:43 0° 106° (ESE) 2,850 ? 8.6°
